Regional Weather Roundup
Issued by NWS Charleston, WV

Home | Current Version | Previous Version | Graphics & Text | Print | Product List | Glossary On
Versions: 1 2 3 4 5 6 7 8 9 10 11 12 13 14 15 16 17 18 19 20 21 22 23 24 25 26 27 28 29 30 31 32 33 34 35 36 37 38 39 40 41 42 43 44 45 46 47 48 49 50
000
ASUS41 KRLX 170510
RWRRLX
West Virginia Regional Weather Roundup
National Weather Service Charleston WV
100 AM EDT THU AUG 17 2017

Note: "fair" indicates few or no clouds below 12,000 feet with no
significant weather and/or obstructions to visibility.

WVZ003-170600-
Northern Panhandle of West Virginia

CITY           SKY/WX    TMP DP  RH WIND       PRES   REMARKS
WHEELING       CLEAR     71  62  73 E8        30.04F
$$

WVZ009-170600-
Northwest West Virginia

CITY           SKY/WX    TMP DP  RH WIND       PRES   REMARKS
PARKERSBURG    CLEAR     72  70  93 CALM      30.05S FOG
$$

WVZ006-170600-
Western West Virginia

CITY           SKY/WX    TMP DP  RH WIND       PRES   REMARKS
HUNTINGTON     CLEAR     72  70  93 E5        30.02S
$$

WVZ015-170600-
West Central West Virginia

CITY           SKY/WX    TMP DP  RH WIND       PRES   REMARKS
CHARLESTON     PTCLDY    72  70  93 CALM      30.05R FOG
$$

WVZ022-031-170600-
North Central West Virginia

CITY           SKY/WX    TMP DP  RH WIND       PRES   REMARKS
CLARKSBURG     CLEAR     68  67  96 NE3       30.06S FOG
MORGANTOWN     MOCLDY    70  65  84 CALM      30.07F
$$

WVZ025-035-042-045-170600-
Southern West Virginia

CITY           SKY/WX    TMP DP  RH WIND       PRES   REMARKS
BECKLEY        CLEAR     68  64  87 CALM      30.13F
LOGAN            N/A     72  68  88 CALM      30.09R
BLUEFIELD      PTCLDY    68  64  87 SW5       30.16F
LEWISBURG      CLEAR     65  63  93 NE5       30.14R
$$

WVZ047-170600-
Northern Mountains of West Virginia

CITY           SKY/WX    TMP DP  RH WIND       PRES   REMARKS
ELKINS         MOCLDY    64  62  93 CALM      30.13S FOG
$$

WVZ052-170600-
Eastern Panhandle of West Virginia

CITY           SKY/WX    TMP DP  RH WIND       PRES   REMARKS
MARTINSBURG    NOT AVBL
PETERSBURG     CLEAR     69  69  99 CALM      30.07F FOG
$$



USA.gov is the U.S. government's official web portal to all federal, state and local government web resources and services.